Home   Weather   Black Mountain   Past weeks

Flag for USA Past Weather in Black Mountain, North Carolina, USA — Yesterday and Last 2 Weeks

Now
69 °F

Sunny.


Feels Like: 69 °F
Forecast: 56 / 78 °F
Wind: 7 mph from South

Location: Asheville Regional Airport

Current Time: Apr 28, 2017 at 12:34:43 pm

Latest Report: Apr 28, 2017 at 11:54 am


Visibility: 10 mi

Pressure: 30.05 "Hg (27.61 "Hg at 729m altitude)

Humidity: 73%

Dew Point: 60 °F

Location of Black MountainLocation

Past Weather in Black Mountain — Graph

°F

Black Mountain Temperature Yesterday

Maximum temperature yesterday: 64 °F (at 9:54 am)
Minimum temperature yesterday: 59 °F (at 12:19 pm)
Average temperature yesterday: 61 °F

High & Low Weather Summary for the Past Weeks

 TemperatureHumidityPressure
High79 °F (Apr 26, 2:54 pm)97% (Apr 21, 7:54 am)30.37 "Hg (Apr 21, 7:54 am)
Low47 °F (Apr 23, 8:54 pm)19% (Apr 14, 12:54 pm)29.67 "Hg (Apr 25, 4:54 pm)
Average60 °F77%30.02 "Hg
* Reported Apr 13 10:54 am — Apr 28 10:54 am, Black Mountain, Weather by CustomWeather, © 2017

Note: Actual official high and low records may vary slightly from our data, if they occured in-between our weather recording intervals... More about our weather records

Advertising

Black Mountain Weather History for the Previous 24 Hours

Scroll right to see more
 ConditionsComfort  
Time TempWeatherWind HumidityBarometerVisibility
10:54 am
Fri, Apr 28
62 °FPassing clouds.5 mph83%30.07 "Hg10 mi
9:54 am60 °FLow clouds.No wind86%30.07 "Hg8 mi
9:03 am57 °FFog.No wind93%30.10 "Hg3 mi
8:01 am57 °FFog.No wind93%30.08 "Hg2 mi
7:35 am57 °FFog.3 mph93%30.07 "Hg2 mi
6:54 am57 °FFog.No wind93%30.00 "Hg2 mi
6:34 am57 °FFog.No wind93%30.04 "Hg2 mi
6:23 am57 °FFog.No wind93%30.03 "Hg2 mi
5:54 am57 °FFog.No wind93%29.97 "Hg4 mi
5:38 am57 °FFog.3 mph96%30.02 "Hg2 mi
4:54 am58 °FFog.No wind93%29.97 "Hg1 mi
3:54 am58 °FFog.3 mph93%29.96 "Hg1 mi
3:30 am58 °FFog.3 mph93%29.99 "Hg1 mi
3:10 am59 °FFog.3 mph93%29.99 "Hg2 mi
3:03 am59 °FFog.5 mph93%29.99 "Hg5 mi
2:32 am59 °FFog.No wind93%29.99 "Hg1 mi
1:54 am59 °FFog.5 mph93%29.94 "Hg0 mi
12:54 am59 °FFog.No wind93%29.93 "Hg0 mi
12:26 am58 °FFog.5 mph93%29.96 "Hg0 mi
12:19 am59 °FFog.3 mph93%29.96 "Hg1 mi
11:58 pm
Thu, Apr 27
60 °FFog.No wind90%29.95 "Hg1 mi
11:32 pm60 °FFog.No wind93%29.96 "Hg3 mi
11:04 pm61 °FFog.No wind93%29.97 "Hg6 mi
10:54 pm60 °FFog.No wind93%29.91 "Hg4 mi
10:40 pm61 °FPassing clouds.3 mph93%29.95 "Hg7 mi
9:54 pm61 °FFog.No wind93%29.87 "Hg5 mi
8:54 pm62 °FPassing clouds.3 mph90%29.85 "Hg8 mi
7:54 pm63 °FSunny.7 mph93%29.83 "Hg10 mi
7:37 pm64 °FScattered clouds.6 mph90%29.88 "Hg10 mi
7:20 pm64 °FMostly cloudy.5 mph90%29.88 "Hg10 mi
6:54 pm64 °FMostly cloudy.No wind87%29.84 "Hg10 mi
6:37 pm63 °FMostly cloudy.3 mph90%29.89 "Hg10 mi
6:03 pm62 °FLow clouds.6 mph90%29.88 "Hg7 mi
5:26 pm61 °FLight rain. Fog.3 mph90%29.89 "Hg2 mi
4:54 pm60 °FLight rain. Fog.No wind90%29.83 "Hg2 mi
4:28 pm60 °FLight rain. Fog.3 mph93%29.88 "Hg3 mi
4:20 pm61 °FLight rain. Fog.No wind90%29.88 "Hg5 mi
4:01 pm60 °FLight rain. Fog.3 mph93%29.87 "Hg4 mi
3:32 pm60 °FLight rain. Fog.5 mph90%29.88 "Hg2 mi
2:54 pm60 °FLight rain. Fog.5 mph90%29.83 "Hg2 mi
2:29 pm59 °FLight rain. Fog.5 mph93%29.88 "Hg2 mi
2:10 pm59 °FLight rain. Fog.7 mph90%29.88 "Hg2 mi
1:54 pm59 °FLight rain. Fog.7 mph90%29.83 "Hg2 mi
1:22 pm59 °FLight rain. Fog.8 mph90%29.89 "Hg2 mi
12:54 pm59 °FLight rain. Fog.6 mph87%29.85 "Hg1 mi
12:38 pm59 °FLight rain. Fog.5 mph87%29.91 "Hg2 mi
12:19 pm59 °FLight rain. Fog.6 mph90%29.90 "Hg2 mi
12:09 pm60 °FLight rain. Mostly cloudy.7 mph83%29.90 "Hg2 mi
Weather by CustomWeather, © 2017

See weather overviewHow to use our weather pages